Location: Chequamegon National Forest
(46.1070°N, 90.8420°W)
Time: 03:45:18
(UTC-06:00)

Daily predictions for brighter satellites

Satellite Brightness Start Highest point End
(mag) Time Altitude Azimuth Time Altitude Azimuth Time Altitude Azimuth
SL-16 R/B 4.1 03:57:16 23° ESE 03:57:16 23° ESE 03:59:28 10° SE
Cosmos 2297 Rocket 3.8 04:05:23 30° NE 04:05:23 30° NE 04:08:16 10° NE
USA 229 DEB 4.3 04:13:19 49° SSE 04:13:19 49° SSE 04:18:21 10° SE
USA 229 4.3 04:13:22 50° SSE 04:13:22 50° SSE 04:18:27 10° SE
Cosmos 2227 Rocket 3.8 04:18:50 27° NNE 04:18:50 27° NNE 04:21:22 10° NNE
ATLAS 2AS CENTAUR R/B 4.4 04:28:41 22° NNW 04:32:15 30° NNE 04:39:02 10° E
ADEOS II 4.3 04:27:29 10° N 04:28:18 15° N 04:28:18 15° N
Cosmos 1725 Rocket 4.1 04:40:50 68° N 04:40:50 68° N 04:46:17 10° N
Cosmos 1603 4.2 04:56:06 35° N 04:58:18 57° ENE 05:03:52 10° SE
USA 234 3.9 04:52:56 10° E 04:59:09 48° NNE 05:01:29 35° NNW
Cosmos 2151 3.6 04:59:21 53° E 04:59:21 53° E 05:03:24 10° SSE
NOSS 3-1 (C) 3.9 05:01:36 41° NW 05:04:44 89° SW 05:13:02 10° SE
Cosmos 1538 Rocket 3.9 05:13:23 63° NW 05:14:14 78° WSW 05:19:35 10° SSE
COSMO-SKYMED 1 2.4 05:11:46 10° SSE 05:16:06 90° N 05:16:07 89° NNW
Cosmos 923 Rocket 4.5 05:18:04 19° N 05:21:43 60° ENE 05:26:54 10° SE
CZ-4 R/B 4.3 05:18:52 10° NE 05:21:43 18° E 05:24:35 10° SE
Ariane Rocket 3.9 05:17:25 10° NNE 05:22:22 49° E 05:27:18 10° S
Genesis I 3.4 05:24:37 63° S 05:24:37 63° S 05:27:59 10° SSE
Cosmos 220 Rocket 4.5 05:26:06 47° NNW 05:26:06 47° NNW 05:29:27 10° NNE
SL-8 R/B 3.6 05:25:32 65° W 05:26:07 76° SSW 05:30:54 10° ESE
Cosmos 2233 Rocket 3.9 05:20:26 10° SSW 05:26:39 65° WNW 05:32:57 10° N
Cosmos 1680 Rocket 4.2 05:25:05 13° NNW 05:29:44 55° ENE 05:34:57 10° SE
Cosmos 2227 4.4 05:25:25 10° SSW 05:30:59 69° ESE 05:36:36 10° NNE
CZ-3 Stage 3 4.1 05:28:58 12° SSW 05:32:00 18° SSE 05:39:22 10° SE
SeaSat 1 3.1 05:32:50 10° NNE 05:36:52 35° NW 05:36:52 35° NW
SL-16 R/B 3.3 05:39:13 26° SW 05:39:13 26° SW 05:42:40 10° SSW
Sich 1 4.2 05:35:38 10° N 05:39:49 43° ENE 05:43:56 10° SSE
ISS -0.6 05:41:57 10° S 05:41:57 10° S 05:42:03 10° S
Cosmos 1633 Rocket 4.2 05:40:48 10° N 05:44:59 43° ENE 05:49:07 10° SSE
Coronas F rocket 3.5 05:44:23 15° NNE 05:45:43 23° ENE 05:47:43 10° SE
DMSP B5D1-3 4.5 05:41:36 10° S 05:46:40 61° WSW 05:51:41 10° NNW
Cosmos 2297 Rocket 3.1 05:47:14 28° NW 05:47:14 28° NW 05:51:58 10° N
Cosmos 968 Rocket 3.7 05:46:55 26° WSW 05:49:31 47° WNW 05:54:37 10° NNE
Cosmos 2034 Rocket 4.3 05:44:25 10° S 05:50:34 69° E 05:56:48 10° NNE
Cosmos 1703 3.2 05:48:39 12° N 05:52:13 89° W 05:56:09 10° S
Cosmos 389 Rocket 4.3 05:52:25 10° SSE 05:55:47 35° E 05:59:09 10° NNE
Meteor 1-28 Rocket 3.5 05:56:39 10° S 06:00:14 43° W 06:01:21 33° NW
Cosmos 773 Rocket 4.3 05:57:23 22° NW 06:00:27 46° WSW 06:05:29 10° S
Cosmos 2227 Rocket 3.6 06:00:41 19° NW 06:00:41 19° NW 06:04:31 10° N
Cosmos 1626 2.0 05:57:12 10° N 06:00:58 89° E 06:04:42 10° S
Cosmos 2058 3.3 06:00:42 27° NW 06:02:19 40° W 06:06:12 10° SSW
Cosmos 1271 Rocket 3.0 06:00:00 10° SSW 06:03:37 41° WNW 06:07:14 10° N
SKYMED 2 4.4 06:00:35 10° SSW 06:04:21 29° W 06:04:45 28° W
Cosmos 1513 Rocket 4.5 05:58:33 10° S 06:04:50 84° W 06:11:17 10° N
Cosmos 2112 Rocket 4.0 05:59:45 10° NNW 06:05:07 90° WNW 06:10:28 10° SSE
YAOGAN 1 4.2 06:02:38 10° NNE 06:06:41 37° E 06:10:42 10° SSE
Meteor 1-16 Rocket 4.4 06:02:57 10° SW 06:08:03 42° WNW 06:13:07 10° N
BREEZE-M DEB (TANK) 2.4 06:09:46 30° NW 06:10:54 53° N 06:13:01 10° E
Cosmos 1184 Rocket 2.7 06:08:16 14° NNW 06:11:04 73° W 06:14:21 10° S
Cosmos 1340 Rocket 3.5 06:10:40 27° WNW 06:11:33 30° W 06:15:01 10° SSW
Meteor 2-12 Rocket 4.4 06:05:29 10° SSW 06:11:34 65° WNW 06:17:43 10° N
NOSS 3-1 (A) 4.3 06:09:42 16° NW 06:15:36 50° WSW 06:23:33 10° S
Cosmos 292 Rocket 3.9 06:11:52 14° NNW 06:15:52 52° WSW 06:20:31 10° S
Cosmos 2221 2.7 06:12:24 10° SSW 06:16:34 46° WNW 06:20:44 10° N
Cosmos 1666 Rocket 3.5 06:13:33 10° NNW 06:18:01 71° W 06:22:28 10° S
Cosmos 1943 3.2 06:13:33 10° NNW 06:19:16 75° WSW 06:24:56 10° SSE
Cosmos 1464 Rocket 4.1 06:13:58 10° SSW 06:20:09 56° WNW 06:26:20 10° N
ATLAS 2AS CENTAUR R/B 3.2 06:16:29 10° NW 06:24:39 75° NE 06:32:18 10° SE
SMAP 3.5 06:20:07 10° NNE 06:24:46 67° ESE 06:29:24 10° S
Cosmos 1356 Rocket 3.8 06:21:19 10° NNW 06:25:11 41° W 06:29:06 10° SSW
APEX 4.4 06:24:21 10° S 06:27:53 39° ESE 06:30:51 10° NE
Cosmos 1933 Rocket 4.2 06:25:10 10° N 06:29:36 60° E 06:33:58 10° SSE
Tiangong 2 3.3 06:27:06 10° SSW 06:29:37 22° SSE 06:32:10 10° ESE
Cosmos 1777 Rocket 4.4 06:25:20 10° SW 06:30:13 39° WNW 06:35:07 10° N
Helios 1B rocket 2.6 06:26:15 10° SSE 06:30:20 76° ENE 06:34:28 10° N
CSL-04 Debris 4.2 06:27:33 10° N 06:32:57 60° WNW 06:38:19 10° SSW
SPOT 3 Rocket 3.9 06:33:33 10° NNE 06:38:47 73° ESE 06:43:59 10° S
COSMOS 2406 4.4 06:34:45 10° NNW 06:40:12 40° NE 06:45:36 10° SE
USA 234 3.3 06:35:23 10° SE 06:41:57 76° SW 06:48:33 10° NW
IRS-1A Rocket 4.4 06:37:43 10° N 06:43:35 65° WNW 06:49:19 10° SSW
Cosmos 2263 Rocket 2.3 06:39:09 10° SSW 06:44:50 85° ESE 06:50:34 10° NNE
SJ-12 4.0 06:44:30 10° N 06:48:30 51° WNW 06:52:26 10° SSW
Cosmos 1908 3.4 06:46:46 10° SSW 06:50:28 47° WNW 06:54:13 10° N
Cosmos 1470 Rocket 3.5 06:46:19 10° NNW 06:50:39 76° W 06:54:58 10° S
CZ-2C R/B 2.3 06:51:07 10° N 06:55:37 54° WNW 07:00:03 10° SSW
CZ-4 R/B 1.8 06:53:06 10° N 06:56:57 42° WNW 07:00:50 10° SW
IDEFIX/ARIANE 42P 2.7 06:53:04 10° N 06:58:14 56° WNW 07:03:23 10° SSW
CSL-04 Rocket 4.3 06:54:03 10° N 06:58:44 32° WNW 07:03:21 10° SW
Ariane Rocket 4.0 06:56:57 10° N 07:01:02 25° WNW 07:05:08 10° WSW
Meteor 1-29 3.1 06:58:04 10° S 07:01:31 58° W 07:05:00 10° NNW
Cosmos 1726 2.4 06:59:51 10° S 07:03:31 75° E 07:07:15 10° NNE
Cosmos 2228 Rocket 3.3 07:01:28 10° SSW 07:05:45 48° WNW 07:10:03 10° N
Cosmos 1627 Rocket 4.5 06:59:45 10° N 07:05:54 82° W 07:12:04 10° S
